Regional Weather Roundup
Issued by NWS Charleston, SC

Current Version | Previous Version | Graphics & Text | Print | Product List | Glossary On
Versions: 1 2 3 4 5 6 7 8 9 10 11 12 13 14 15 16 17 18 19 20 21 22 23 24 25 26 27 28 29 30 31 32 33 34 35 36 37 38 39 40 41 42 43 44 45 46 47 48 49 50
000
ASUS42 KCHS 070112
RWRCHS

REGIONAL WEATHER ROUNDUP
NATIONAL WEATHER SERVICE CHARLESTON SC
800 PM EST TUE DEC 06 2016

NOTE: "FAIR" INDICATES FEW OR NO CLOUDS BELOW 12,000 FEET WITH NO
SIGNIFICANT WEATHER AND/OR OBSTRUCTIONS TO VISIBILITY.

NOT ALL STATIONS ARE QUALITY CONTROLLED. USE DATA WITH CAUTION...
ESPECIALLY DEWPOINT OBSERVATIONS.

SCZ027-030-031-034>040-042>050-070200-
...SOUTHEAST SOUTH CAROLINA...

CITY           SKY/WX    TMP DP  RH WIND       PRES   REMARKS
N CHARLESTON   PTCLDY    58  54  86 N9        29.83R
WATERFRONT PRK NOT AVBL
MOUNT PLEASANT NOT AVBL
JOHNS ISLAND   FAIR      63  59  88 NW8       29.83R
PINOPOLIS        N/A     55  54  94 NW13      29.75R
MONCKS CORNER  CLOUDY    54  52  94 CALM      29.84R
SUMMERVILLE    FAIR      55  55 100 NW6       29.86R
BEAUFORT MCAS  CLEAR     64  56  75 NW12      29.84R
BEAUFORT ARPT  FAIR      63  59  88 N8        29.83R
HILTON HEAD IS CLEAR     66  61  82 NW14      29.80R
WALTERBORO     CLEAR     57 N/A N/A NW3       29.86R
ALLENDALE      FAIR      55  54  94 CALM      29.85R

...SOUTHERN MIDLANDS AND PEE DEE...

CITY           SKY/WX    TMP DP  RH WIND       PRES   REMARKS
GEORGETOWN     CLOUDY    54  52  94 NW8G17    29.84R
KINGSTREE      CLOUDY    50  48  93 W8        29.85R
ORANGEBURG     CLOUDY    52  50  93 NW7       29.86R
BARNWELL       NOT AVBL
AIKEN          FAIR      46  46 100 W3        29.88S
MANNING        CLOUDY    50  50 100 NW6       29.86R
COLUMBIA       CLOUDY    51  48  89 NW6       29.86R
SUMTER         CLOUDY    50  47  92 NW7       29.84R
FLORENCE       CLOUDY    51  50  96 NW5       29.84R
MYRTLE BEACH   CLOUDY    55  52  88 NW16      29.83R
N MYRTLE BEACH CLOUDY    54  53  97 W9        29.80R

$$

GAZ063-065-086>088-099>101-113>116-118-119-134>141-150-070200-
...SOUTHEAST GEORGIA...

CITY           SKY/WX    TMP DP  RH WIND       PRES   REMARKS
SAVANNAH ARPT  CLEAR     63  58  83 N7        29.84R
HUNTER AAF     CLEAR     63  61  94 W5        29.81R
FORT STEWART   CLEAR     61  56  81 CALM      29.82R
STATESBORO     NOT AVBL
SYLVANIA       CLEAR    N/A N/A N/A N6        29.86R
CLAXTON        FAIR     N/A N/A N/A CALM      29.84R

...CSRA...CENTRAL AND FAR SOUTHEAST GEORGIA...

CITY           SKY/WX    TMP DP  RH WIND       PRES   REMARKS
THOMSON        CLOUDY    53  53 100 CALM      29.91S
AUGUSTA-BUSH   CLOUDY    54  50  86 N5        29.86R
AUGUSTA-DANIEL CLOUDY    52  48  86 CALM      29.86S
SWAINSBORO     CLOUDY    61  57  88 CALM      29.86R
VIDALIA        CLEAR     64  57  77 W3        29.85R
EASTMAN        FAIR      66  48  52 NW5       29.89R
HAZLEHURST     FAIR      64  60  86 CALM      29.85R
ALMA           CLEAR     66  57  72 W5        29.85R
WAYCROSS       CLEAR     69  58  69 W5        29.85R
JESUP          FAIR      64  59  82 W3        29.85R
BAXLEY         FAIR      66  61  82 W3        29.85R
BRUNSWICK      CLEAR     68  54  60 W5        29.85R
SAINT SIMONS   CLEAR     70  51  51 W5        29.84R

$$

SCZ027-028-034-036>038-045-046-048>050-GAZ119-141-070200-
...LAKE AND SUPPLEMENTAL COASTAL OBSERVATIONS...

STATION/POSITION TIME  TEMP    WIND        PRES    WAVE   SWELL
                       AIR SEA DIR/SP/G            HT/PER HT/PER/DIR
                 (UTC) (F)     (DEG/KT/KT) (MB)    (FT/S) (FT/S/D)
WINYAH BAY       NOT AVBL
LAKE MURRAY      0020   47      CALM  /  4 1010.8R
ACE BASIN NERRS  2345   67     330/  3     1008.0
FORT PULASKI     0018   69 62  320/  6/  7 1009.7
SAPELO ISLAND    0000   68     270/  6     1010.0

$$

ANZ835-935-AMZ111-154-330-350-352-354-370-450-454-472-070200-
...C-MAN AND BUOY OBSERVATIONS...

STATION/POSITION TIME  TEMP    WIND        PRES    WAVE   SWELL
                       AIR SEA DIR/SP/G            HT/PER HT/PER/DIR
                 (UTC) (F)     (DEG/KT/KT) (MB)    (FT/S) (FT/S/D)
BUOY 41004       2350   74 74  240/ 17/ 19 1007.1    8/ 8
BUOY 41008       2350   69 65  260/ 10/ 12 1008.9    4/ 7   3/110/ 7
FOLLY BEACH CMAN 0000   64     340/ 10/ 13 1009.6R
CAPERS NEARSHORE 0008   61 61  330/ 12/ 17 1009.0R
FRIPP NEARSHORE  0008   64 62  340/  4/  8 1008.9R


STATION/POSITION TIME  TEMP    WIND        PRES    WAVE   SWELL
                       AIR SEA DIR/SP/G            HT/PER HT/PER/DIR
                 (UTC) (F)     (DEG/KT/KT) (MB)    (FT/S) (FT/S/D)
5E ST. MARYS GA  0030      66                N/A     3/ 7
FRYING PAN BUOY  0030   68 74  270/ 23/ 29 1007.8R
BUOY 41025       2350   73 75  240/ 29/ 37 1002.0   10/ 8   8/150/ 8
CAPE LOOKOUT NC  0000   65     240/ 15/ 19 1003.3F
BUOY 41002       2350   75 74  210/ 23/ 27 1009.2   10/ 8   2/130/13
BUOY 41010       NOT AVBL
ST AUGUSTINE FL  0000   72 68  250/  9/ 11 1011.7R


$$



USA.gov is the U.S. government's official web portal to all federal, state and local government web resources and services.